EW3967 Weather Reports


Display with metric or nautical units.
time (UTC)temp
F
wind
direction
speed
MPH
gust
MPH
rain 1hr
in
rain 24hr
in
rain mn
in
humidity
%
barometer
mb
20260905113051 78 146 1.0 5.0 0.00 0.00 0.00 72 1011.1
20260905111623 78 160 1.0 3.0 0.00 0.00 0.00 72 1011.2
20260905110048 78 235 1.0 4.0 0.00 0.00 0.00 71 1011.2
20260905104547 78 144 0.0 3.0 0.00 0.00 0.00 72 1011.2
20260905103047 77 153 0.0 2.0 0.00 0.00 0.00 72 1011.1
20260905101546 78 164 0.0 1.0 0.00 0.00 0.00 71 1011.2
20260905100045 78 164 0.0 1.0 0.00 0.00 0.00 71 1011.1
20260905094540 79 210 0.0 1.0 0.00 0.00 0.00 70 1011.2
20260905093042 79 160 0.0 2.0 0.00 0.00 0.00 69 1011.1
20260905091538 79 250 1.0 3.0 0.00 0.00 0.00 69 1011.1
20260905090037 79 165 0.0 4.0 0.00 0.00 0.00 68 1010.8
20260905084534 79 149 0.0 3.0 0.00 0.00 0.00 68 1010.8
20260905083037 80 158 1.0 5.0 0.00 0.00 0.00 67 1010.8
20260905081530 80 158 0.0 6.0 0.00 0.00 0.00 66 1010.6
20260905080041 81 179 1.0 3.0 0.00 0.00 0.00 65 1010.8
20260905074528 81 194 1.0 4.0 0.00 0.00 0.00 65 1010.8
20260905073027 82 159 1.0 4.0 0.00 0.00 0.00 64 1010.8
20260905071524 82 167 1.0 5.0 0.00 0.00 0.00 63 1010.9
20260905070022 82 151 1.0 5.0 0.00 0.00 0.00 62 1010.9
20260905064528 83 230 0.0 6.0 0.00 0.00 0.00 60 1010.9
20260905063019 83 200 3.0 8.0 0.00 0.00 0.00 60 1010.9
20260905061518 83 155 3.0 7.0 0.00 0.00 0.00 60 1010.9
20260905060029 83 200 1.0 5.0 0.00 0.00 0.00 60 1011.0
20260905054515 83 154 1.0 5.0 0.00 0.00 0.00 59 1011.1
20260905053027 83 158 1.0 5.0 0.00 0.00 0.00 59 1011.1
20260905051512 84 167 0.0 4.0 0.00 0.00 0.00 58 1011.1
20260905050010 84 155 1.0 5.0 0.00 0.00 0.00 57 1011.2
20260905044509 85 146 2.0 4.0 0.00 0.00 0.00 56 1011.2
20260905043008 85 138 2.0 6.0 0.00 0.00 0.00 55 1011.2
20260905041508 86 153 3.0 6.0 0.00 0.00 0.00 55 1011.0
20260905040016 87 166 4.0 6.0 0.00 0.00 0.00 54 1011.0
20260905034507 87 148 4.0 8.0 0.00 0.00 0.00 53 1011.1
20260905033007 87 146 4.0 8.0 0.00 0.00 0.00 53 1010.9
20260905031506 88 160 3.0 9.0 0.00 0.00 0.00 52 1010.7
20260905030007 88 159 4.0 6.0 0.00 0.00 0.00 52 1010.5
20260905024510 88 181 3.0 7.0 0.00 0.00 0.00 52 1010.3
20260905023006 89 165 4.0 8.0 0.00 0.00 0.00 52 1010.1
20260905021507 89 155 4.0 9.0 0.00 0.00 0.00 51 1009.8
20260905020004 89 187 2.0 6.0 0.00 0.00 0.00 51 1009.6
20260905014503 90 147 2.0 4.0 0.00 0.00 0.00 50 1009.3
20260905013002 90 158 1.0 3.0 0.00 0.00 0.00 49 1009.2
20260905011503 91 170 1.0 4.0 0.00 0.00 0.00 48 1008.9
20260905010001 92 184 2.0 6.0 0.00 0.00 0.00 46 1008.8
20260905004501 93 138 3.0 6.0 0.00 0.00 0.00 45 1008.8
20260905003001 94 167 4.0 10.0 0.00 0.00 0.00 43 1008.7
20260905001600 95 162 4.0 10.0 0.00 0.00 0.00 42 1008.6
20260905000100 95 166 4.0 8.0 0.00 0.00 0.00 43 1008.7
20260905000002 95 155 4.0 8.0 0.00 0.00 0.00 43 1008.6
20260904234559 95 127 5.0 12.0 0.00 0.00 0.00 42 1008.5
20260904233059 96 158 6.0 13.0 0.00 0.00 0.00 41 1008.5
20260904231558 96 161 7.0 14.0 0.00 0.00 0.00 41 1008.4
20260904230058 97 149 6.0 14.0 0.00 0.00 0.00 40 1008.4
20260904224558 99 164 7.0 13.0 0.00 0.00 0.00 38 1008.4
20260904223056 99 160 6.0 14.0 0.00 0.00 0.00 37 1008.3
20260904221601 100 154 6.0 14.0 0.00 0.00 0.00 38 1008.4
20260904220056 99 99 3.0 11.0 0.00 0.00 0.00 39 1008.5
20260904214554 99 154 3.0 13.0 0.00 0.00 0.00 38 1008.6
20260904213049 99 146 4.0 11.0 0.00 0.00 0.00 39 1008.7
20260904211545 99 120 6.0 19.0 0.00 0.00 0.00 40 1008.9
20260904210050 99 211 4.0 13.0 0.00 0.00 0.00 39 1009.1
20260904204540 97 124 6.0 13.0 0.00 0.00 0.00 40 1009.2
20260904203039 99 155 4.0 11.0 0.00 0.00 0.00 39 1009.3
20260904201538 99 200 4.0 14.0 0.00 0.00 0.00 40 1009.5
20260904200032 97 142 5.0 18.0 0.00 0.00 0.00 42 1009.6
20260904194529 97 141 8.0 16.0 0.00 0.00 0.00 42 1009.6
20260904193028 97 178 6.0 17.0 0.00 0.00 0.00 43 1009.9
20260904191523 97 173 8.0 14.0 0.00 0.00 0.00 42 1010.0
20260904190026 96 183 6.0 17.0 0.00 0.00 0.00 43 1010.2
20260904184517 96 204 7.0 15.0 0.00 0.00 0.00 43 1010.2
20260904183014 96 200 6.0 15.0 0.00 0.00 0.00 44 1010.5
20260904181510 95 196 5.0 20.0 0.00 0.00 0.00 45 1010.7
20260904180010 95 208 3.0 12.0 0.00 0.00 0.00 45 1010.8
20260904174506 95 243 5.0 14.0 0.00 0.00 0.00 44 1011.0
20260904173001 94 243 4.0 14.0 0.00 0.00 0.00 46 1011.3
20260904171603 93 167 4.0 10.0 0.00 0.00 0.00 47 1011.4
20260904170054 92 170 5.0 14.0 0.00 0.00 0.00 48 1011.5
20260904164552 91 163 5.0 15.0 0.00 0.00 0.00 50 1011.7
20260904163049 90 215 6.0 16.0 0.00 0.00 0.00 53 1011.7
20260904161543 89 144 6.0 14.0 0.00 0.00 0.00 57 1011.8
20260904160040 88 199 4.0 14.0 0.00 0.00 0.00 60 1011.8
20260904154539 87 164 5.0 12.0 0.00 0.00 0.00 61 1011.8
20260904153036 86 184 4.0 15.0 0.00 0.00 0.00 64 1011.8
20260904151530 85 184 8.0 13.0 0.00 0.00 0.00 65 1011.9
20260904150036 84 162 5.0 14.0 0.00 0.00 0.00 68 1011.9
20260904144526 83 203 3.0 16.0 0.00 0.00 0.00 70 1011.8
20260904143025 82 182 5.0 12.0 0.00 0.00 0.00 71 1011.8
20260904141521 81 240 4.0 11.0 0.00 0.00 0.00 73 1011.8
20260904140018 80 229 5.0 10.0 0.00 0.00 0.00 75 1011.8
20260904134517 79 236 5.0 13.0 0.00 0.00 0.00 77 1011.8
20260904133016 78 192 5.0 10.0 0.00 0.00 0.00 78 1011.8
20260904131513 77 160 3.0 7.0 0.00 0.00 0.00 79 1011.8
20260904130013 76 156 4.0 7.0 0.00 0.00 0.00 80 1011.4
20260904124512 75 110 3.0 8.0 0.00 0.00 0.00 80 1011.4
20260904123009 75 153 4.0 9.0 0.00 0.00 0.00 81 1011.2
20260904121507 74 150 2.0 8.0 0.00 0.00 0.00 81 1011.1
20260904120007 74 240 4.0 8.0 0.00 0.00 0.00 81 1011.0
20260904114506 74 181 4.0 8.0 0.00 0.00 0.00 81 1011.0